Location: Unspecified
(54.1780°N, 0.0000°E)
Time: 12:46:48
(UTC+00:00)

Explorer 7 - Pass Details

Date: 21 June 2019
Orbit: 485 x 680 km, 50.3° (Epoch: 20 July)

Event Time Altitude Azimuth Distance (km) Brightness Sun altitude
Rises 15:15:51 0° 278° (W) 2,981 11.2 42.7°
Reaches altitude 10° 15:18:54 10° 258° (WSW) 2,091 10.9 42.3°
Maximum altitude 15:21:56 17° 219° (SW) 1,697 10.3 41.9°
Drops below altitude 10° 15:25:00 10° 180° (S) 2,112 10.1 41.4°
Sets 15:28:07 0° 160° (SSE) 3,024 10.6 41.0°
